QPF
0.00 0.00 0.00 0.00 0.00 0.00 0.00 0.00 0.00 0.00 0.00 0.00 0.00 0.00 0.00 0.00 0.00 0.00 0.00 0.00 0.00 0.00 0.00 0.00 0.00 0.00 0.03 0.01 0.00 0.00 0.00 0.00 0.00 0.00 0.00 0.00 0.00 0.00 0.00 0.00 0.00 0.00 0.00
0.00 0.00 0.00 0.00 0.00 0.00 0.01 0.01 0.00 0.00 0.00 0.00 0.00 0.00 0.00 0.00 0.00 0.00 0.00 0.00 0.00 0.00 0.00 0.00 0.00 0.00 0.00 0.00 0.00 0.00 0.00 0.00 0.00 0.00 0.00 0.00 0.00 0.00 0.00 0.00 0.00 0.00 0.01
0.00 0.00 0.00 0.00 0.00 0.00 0.01 0.01 0.00 0.00 0.00 0.00 0.00 0.00 0.00 0.00 0.00 0.00 0.00 0.00 0.00 0.00 0.00 0.00 0.00 0.00 0.00 0.00 0.00 0.00 0.00 0.00 0.00 0.00 0.00 0.00 0.00 0.00 0.00 0.00 0.00 0.00 0.00
0.00 0.00 0.00 0.00 0.00 0.01 0.01 0.00 0.00 0.00 0.00 0.00 0.00 0.00 0.00 0.00 0.00 0.00 0.00 0.00 0.00 0.00 0.00 0.00 0.00 0.00 0.00 0.00 0.00 0.00 0.00 0.00 0.00 0.00 0.00 0.00 0.00 0.00 0.00 0.00 0.00 0.00 0.00
0.00 0.00 0.00 0.00 0.00 0.01 0.00 0.00 0.00 0.00 0.00 0.00 0.00 0.00 0.00 0.01 0.01 0.00 0.00 0.00 0.00 0.00 0.00 0.00 0.00 0.00 0.00 0.00 0.00 0.00 0.00 0.00 0.00 0.00 0.00 0.00 0.00 0.00 0.00 0.00 0.00 0.00 0.00
0.00 0.00 0.00 0.00 0.00 0.00 0.00 0.00 0.00 0.00 0.00 0.00 0.00 0.00 0.00 0.00 0.01 0.00 0.00 0.00 0.00 0.00 0.00 0.00 0.00 0.00 0.00 0.00 0.00 0.00 0.00 0.00 0.00 0.00 0.00 0.00 0.00 0.00 0.00 0.00 0.00 0.00 0.00
0.00 0.00 0.00 0.00 0.00 0.00 0.00 0.00 0.00 0.00 0.00 0.00 0.00 0.00 0.00 0.00 0.00 0.00 0.00 0.00 0.00 0.00 0.00 0.00 0.00 0.00 0.00 0.00 0.00 0.00 0.00 0.00 0.00 0.00 0.00 0.00 0.00 0.00 0.00 0.00 0.00 0.00 0.00
0.00 0.00 0.00 0.00 0.00 0.00 0.00 0.00 0.00 0.00 0.00 0.00 0.00 0.00 0.00 0.00 0.00 0.00 0.00 0.00 0.00 0.00 0.00 0.00 0.00 0.00 0.00 0.00 0.00 0.00 0.00 0.00 0.00 0.00 0.00 0.00 0.00 0.00 0.00 0.00 0.00 0.00 0.00
0.00 0.00 0.00 0.00 0.00 0.00 0.00 0.00 0.00 0.00 0.00 0.00 0.00 0.00 0.00 0.00 0.00 0.00 0.00 0.00 0.00 0.00 0.00 0.00 0.00 0.00 0.00 0.00 0.00 0.00 0.00 0.00 0.00 0.00 0.00 0.00 0.00 0.00 0.00 0.00 0.00 0.00 0.00
0.00 0.00 0.00 0.00 0.00 0.00 0.00 0.00 0.00 0.00 0.00 0.00 0.00 0.00 0.00 0.00 0.00 0.00 0.00 0.00 0.00 0.00 0.00 0.00 0.00 0.00 0.00 0.00 0.00 0.00 0.00 0.00 0.00 0.00 0.00 0.00 0.00 0.00 0.00 0.00 0.00 0.00 0.00
0.00 0.00 0.00 0.00 0.00 0.00 0.00 0.00 0.00 0.00 0.00 0.00 0.00 0.00 0.00 0.00 0.00 0.00 0.00 0.00 0.00 0.00 0.00 0.00 0.00 0.00 0.00 0.00 0.00 0.00 0.00 0.00 0.00 0.00 0.00 0.00 0.00 0.00 0.00 0.00 0.00 0.00 0.00
0.00 0.00 0.00 0.00 0.00 0.00 0.00 0.00 0.00 0.00 0.00 0.00 0.00 0.00 0.00 0.00 0.00 0.00 0.00 0.00 0.00 0.00 0.00 0.00 0.00 0.00 0.00 0.00 0.00 0.00 0.00 0.00 0.00 0.00 0.00 0.00 0.00 0.00 0.00 0.00 0.00 0.00 0.00
0.00 0.00 0.00 0.00 0.00 0.00 0.00 0.00 0.00 0.00 0.00 0.00 0.00 0.00 0.00 0.00 0.00 0.00 0.00 0.00 0.00 0.00 0.00 0.00 0.00 0.00 0.00 0.00 0.00 0.00 0.00 0.00 0.00 0.00 0.00 0.00 0.00 0.00 0.00 0.00 0.00 0.00 0.00
0.00 0.00 0.00 0.00 0.00 0.00 0.00 0.00 0.00 0.00 0.00 0.00 0.00 0.00 0.00 0.00 0.00 0.00 0.00 0.00 0.00 0.00 0.00 0.00 0.00 0.00 0.00 0.00 0.00 0.00 0.00 0.00 0.00 0.00 0.00 0.00 0.00 0.00 0.00 0.00 0.01 0.01 0.00
0.00 0.00 0.00 0.00 0.00 0.00 0.00 0.00 0.00 0.00 0.00 0.00 0.00 0.00 0.00 0.00 0.00 0.00 0.00 0.00 0.00 0.00 0.00 0.00 0.00 0.00 0.00 0.00 0.00 0.00 0.00 0.00 0.00 0.00 0.00 0.00 0.00 0.00 0.00 0.00 0.01 0.01 0.02
0.00 0.00 0.00 0.00 0.00 0.00 0.00 0.00 0.00 0.00 0.00 0.00 0.00 0.00 0.00 0.00 0.00 0.00 0.00 0.00 0.00 0.00 0.00 0.00 0.00 0.00 0.00 0.00 0.00 0.00 0.00 0.00 0.00 0.00 0.00 0.00 0.00 0.00 0.00 0.00 0.00 0.01 0.01
0.00 0.00 0.00 0.00 0.00 0.00 0.00 0.00 0.00 0.00 0.00 0.00 0.00 0.00 0.00 0.00 0.00 0.00 0.00 0.00 0.00 0.00 0.00 0.00 0.00 0.00 0.00 0.00 0.00 0.00 0.00 0.00 0.00 0.00 0.00 0.00 0.00 0.00 0.00 0.00 0.00 0.01 0.01
0.00 0.00 0.00 0.00 0.00 0.00 0.00 0.00 0.00 0.00 0.00 0.00 0.00 0.00 0.00 0.00 0.00 0.00 0.00 0.00 0.00 0.00 0.00 0.00 0.00 0.00 0.00 0.00 0.00 0.00 0.00 0.00 0.00 0.00 0.00 0.00 0.00 0.00 0.00 0.00 0.00 0.01 0.01
0.00 0.00 0.00 0.00 0.00 0.00 0.00 0.00 0.00 0.00 0.00 0.00 0.00 0.00 0.00 0.00 0.00 0.00 0.00 0.00 0.00 0.00 0.00 0.00 0.00 0.00 0.00 0.00 0.00 0.00 0.00 0.00 0.00 0.00 0.00 0.00 0.00 0.00 0.00 0.00 0.00 0.00 0.00
0.00 0.00 0.00 0.00 0.00 0.00 0.00 0.00 0.00 0.00 0.00 0.00 0.00 0.00 0.00 0.00 0.00 0.00 0.00 0.00 0.00 0.00 0.00 0.00 0.00 0.00 0.00 0.00 0.00 0.00 0.00 0.00 0.00 0.00 0.00 0.00 0.00 0.00 0.00 0.00 0.00 0.00 0.00
0.00 0.00 0.00 0.00 0.00 0.00 0.00 0.00 0.00 0.00 0.00 0.00 0.00 0.00 0.00 0.00 0.00 0.00 0.00 0.00 0.00 0.00 0.00 0.00 0.00 0.00 0.00 0.00 0.00 0.00 0.00 0.00 0.00 0.00 0.00 0.00 0.00 0.00 0.00 0.00 0.00 0.00 0.00
0.00 0.00 0.00 0.00 0.00 0.00 0.00 0.00 0.00 0.00 0.00 0.00 0.00 0.00 0.00 0.00 0.00 0.00 0.00 0.00 0.00 0.00 0.00 0.00 0.00 0.00 0.00 0.00 0.00 0.00 0.00 0.00 0.00 0.00 0.00 0.00 0.00 0.00 0.00 0.00 0.00 0.00 0.00
0.00 0.00 0.00 0.00 0.00 0.00 0.00 0.00 0.00 0.00 0.00 0.00 0.00 0.00 0.00 0.00 0.00 0.00 0.00 0.00 0.00 0.00 0.00 0.00 0.00 0.00 0.00 0.00 0.00 0.00 0.00 0.00 0.00 0.00 0.00 0.00 0.00 0.00 0.00 0.00 0.00 0.00 0.00
0.00 0.00 0.00 0.00 0.00 0.00 0.00 0.00 0.00 0.00 0.00 0.00 0.00 0.00 0.00 0.00 0.00 0.00 0.00 0.00 0.00 0.00 0.00 0.00 0.00 0.00 0.00 0.00 0.00 0.00 0.00 0.00 0.00 0.00 0.00 0.00 0.00 0.00 0.00 0.00 0.00 0.00 0.00
0.00 0.00 0.00 0.00 0.00 0.00 0.00 0.00 0.00 0.00 0.00 0.00 0.00 0.00 0.00 0.00 0.00 0.00 0.00 0.00 0.00 0.00 0.00 0.00 0.00 0.00 0.00 0.00 0.00 0.00 0.00 0.00 0.00 0.00 0.00 0.00 0.00 0.00 0.00 0.00 0.00 0.00 0.00
0.00 0.00 0.00 0.00 0.00 0.00 0.00 0.00 0.00 0.00 0.00 0.00 0.00 0.00 0.00 0.00 0.00 0.00 0.00 0.00 0.00 0.00 0.00 0.00 0.00 0.00 0.00 0.00 0.00 0.00 0.00 0.00 0.00 0.00 0.00 0.00 0.00 0.00 0.00 0.00 0.00 0.00 0.00
MSLP
1011.10 1010.85 1011.11 1011.53 1011.81 1011.96 1012.26 1012.70 1013.11 1013.32 1013.53 1013.61 1013.65 1013.75 1013.84 1013.89 1013.94 1014.01 1014.08 1014.07 1014.04 1014.12 1014.20 1014.07 1013.84 1013.84 1013.89 1013.95 1014.01 1014.03 1014.20 1014.41 1014.60 1014.56 1014.57 1014.53 1014.45 1014.37 1014.30 1014.16 1014.14 1014.15 1014.02
1010.43 1010.77 1011.02 1011.38 1011.73 1012.00 1012.25 1012.63 1013.08 1013.35 1013.57 1013.65 1013.71 1013.73 1013.84 1013.87 1013.96 1014.02 1014.10 1014.02 1014.01 1014.13 1014.25 1014.27 1014.16 1014.01 1014.04 1013.96 1014.10 1014.04 1014.07 1014.17 1014.54 1014.59 1014.53 1014.44 1014.37 1014.19 1014.24 1014.08 1014.05 1014.11 1014.01
1010.40 1010.64 1011.00 1011.29 1011.55 1011.85 1012.17 1012.55 1012.94 1013.27 1013.52 1013.61 1013.64 1013.69 1013.70 1013.77 1013.94 1013.98 1014.09 1014.12 1014.08 1014.19 1014.32 1014.37 1014.34 1014.20 1014.18 1014.23 1014.31 1014.06 1014.19 1014.19 1014.26 1014.47 1014.31 1014.27 1014.16 1013.84 1013.97 1014.01 1013.99 1013.94 1013.89
1010.09 1010.52 1010.92 1011.18 1011.35 1011.68 1012.09 1012.40 1012.74 1013.11 1013.40 1013.49 1013.60 1013.63 1013.53 1013.61 1013.74 1013.99 1014.09 1014.27 1014.21 1014.37 1014.37 1014.33 1014.36 1014.31 1014.28 1014.35 1014.26 1014.14 1014.24 1014.21 1014.16 1014.27 1014.27 1014.09 1014.02 1013.41 1013.64 1013.74 1013.81 1013.73 1013.69
1010.08 1010.36 1010.79 1011.02 1011.20 1011.49 1011.86 1012.29 1012.59 1012.86 1013.23 1013.32 1013.50 1013.63 1013.65 1013.52 1013.55 1013.71 1014.04 1014.23 1014.30 1014.33 1014.38 1014.30 1014.29 1014.26 1014.20 1014.22 1014.17 1014.12 1014.02 1014.03 1014.10 1014.21 1014.24 1014.13 1013.94 1013.41 1013.35 1013.54 1013.58 1013.55 1013.53
1010.05 1010.13 1010.59 1010.83 1011.10 1011.45 1011.79 1012.25 1012.48 1012.74 1013.08 1013.16 1013.33 1013.47 1013.54 1013.45 1013.40 1013.60 1013.92 1014.12 1014.20 1014.24 1014.24 1014.17 1014.19 1014.14 1014.11 1014.14 1014.10 1014.04 1013.98 1013.97 1014.03 1014.26 1014.22 1014.06 1013.79 1013.49 1013.18 1013.30 1013.42 1013.45 1013.45
1009.98 1010.09 1010.48 1010.74 1010.98 1011.34 1011.78 1012.24 1012.41 1012.70 1012.86 1013.03 1013.20 1013.25 1013.28 1013.25 1013.27 1013.49 1013.67 1014.02 1014.18 1014.20 1014.24 1014.18 1014.15 1014.08 1014.10 1014.13 1014.07 1013.99 1013.96 1013.95 1014.01 1014.14 1014.07 1013.92 1013.70 1013.34 1013.05 1013.03 1013.08 1013.20 1013.23
1009.90 1010.15 1010.51 1010.79 1010.97 1011.31 1011.74 1012.11 1012.33 1012.60 1012.77 1012.98 1013.13 1013.12 1013.18 1013.25 1013.24 1013.47 1013.76 1013.94 1014.12 1014.18 1014.23 1014.18 1014.08 1014.05 1013.99 1013.91 1013.87 1013.82 1013.79 1013.77 1013.78 1013.93 1013.81 1013.72 1013.42 1013.08 1012.84 1012.83 1012.92 1013.01 1012.96
1009.74 1010.12 1010.50 1010.86 1011.05 1011.31 1011.64 1011.92 1012.16 1012.55 1012.69 1012.91 1013.05 1013.11 1013.24 1013.43 1013.49 1013.46 1013.60 1013.85 1013.91 1014.03 1014.06 1014.06 1014.04 1013.96 1013.89 1013.85 1013.70 1013.59 1013.51 1013.50 1013.56 1013.65 1013.52 1013.38 1013.20 1012.87 1012.57 1012.40 1012.51 1012.71 1012.78
1009.69 1009.99 1010.52 1010.73 1011.03 1011.37 1011.49 1011.75 1011.96 1012.41 1012.65 1012.84 1012.92 1013.05 1013.20 1013.36 1013.44 1013.43 1013.44 1013.68 1013.75 1013.86 1013.93 1013.92 1013.87 1013.80 1013.73 1013.64 1013.51 1013.37 1013.32 1013.32 1013.31 1013.33 1013.25 1013.08 1012.83 1012.44 1012.24 1012.11 1012.18 1012.34 1012.45
1009.46 1009.82 1010.19 1010.55 1010.76 1011.00 1011.22 1011.49 1011.91 1012.11 1012.47 1012.57 1012.72 1012.83 1012.97 1013.18 1013.23 1013.41 1013.41 1013.60 1013.56 1013.61 1013.60 1013.60 1013.57 1013.51 1013.45 1013.36 1013.25 1013.12 1013.07 1013.03 1012.95 1013.00 1012.86 1012.60 1012.32 1011.93 1011.72 1011.58 1011.67 1011.82 1011.92
1009.16 1009.30 1009.69 1010.12 1010.36 1010.44 1010.75 1011.26 1011.70 1011.94 1012.25 1012.32 1012.45 1012.57 1012.74 1012.93 1013.13 1013.06 1013.11 1013.22 1013.26 1013.27 1013.20 1013.23 1013.23 1013.18 1013.14 1013.14 1012.98 1012.76 1012.67 1012.52 1012.57 1012.51 1012.33 1011.90 1011.63 1011.32 1011.09 1011.01 1011.14 1011.26 1011.29
1008.37 1008.82 1008.89 1009.44 1009.65 1010.02 1010.46 1010.99 1011.36 1011.62 1011.97 1012.04 1012.19 1012.38 1012.52 1012.88 1012.92 1013.01 1013.19 1013.23 1013.18 1013.11 1013.13 1013.06 1013.04 1012.99 1012.92 1012.83 1012.72 1012.51 1012.28 1012.16 1012.07 1011.90 1011.64 1011.36 1011.06 1010.79 1010.60 1010.50 1010.55 1010.56 1010.63
1008.16 1008.23 1008.31 1008.66 1009.16 1009.61 1010.00 1010.42 1010.63 1011.16 1011.54 1011.77 1011.86 1012.05 1012.42 1012.75 1012.70 1012.75 1012.98 1013.00 1013.07 1013.03 1013.05 1012.98 1012.85 1012.67 1012.60 1012.42 1012.32 1012.05 1011.76 1011.63 1011.53 1011.36 1011.01 1010.75 1010.47 1010.25 1010.19 1010.07 1009.94 1009.97 1009.89
1007.70 1007.92 1008.01 1008.18 1008.70 1009.13 1009.70 1009.97 1010.36 1010.79 1011.10 1011.33 1011.52 1011.66 1011.92 1012.41 1012.70 1012.72 1012.80 1012.75 1012.63 1012.50 1012.50 1012.57 1012.46 1012.41 1012.25 1012.09 1011.87 1011.74 1011.67 1011.39 1011.32 1011.22 1011.11 1010.84 1010.60 1010.29 1010.13 1009.80 1009.54 1009.22 1009.05
1007.40 1007.59 1007.67 1007.96 1008.32 1008.77 1009.30 1009.67 1009.98 1010.28 1010.51 1010.87 1011.14 1011.49 1011.83 1012.22 1012.53 1012.71 1012.78 1012.78 1012.62 1012.43 1012.41 1012.31 1012.45 1012.46 1012.41 1012.39 1012.28 1011.98 1011.85 1011.45 1011.28 1011.09 1010.85 1010.60 1010.29 1010.08 1009.79 1009.54 1009.12 1008.70 1008.44
1007.91 1007.84 1007.98 1008.04 1008.15 1008.67 1008.98 1009.44 1009.83 1010.04 1010.37 1010.88 1011.20 1011.49 1011.81 1012.14 1012.43 1012.63 1013.03 1013.13 1012.93 1012.74 1012.63 1012.61 1012.74 1012.82 1012.78 1012.69 1012.51 1012.24 1012.06 1011.79 1011.45 1011.20 1010.93 1010.66 1010.43 1010.25 1010.06 1009.71 1009.24 1008.70 1008.40
1007.93 1008.14 1008.17 1008.03 1008.24 1008.60 1008.90 1009.37 1009.77 1010.04 1010.63 1011.20 1011.71 1012.06 1012.35 1012.55 1012.71 1012.99 1013.37 1013.57 1013.43 1013.32 1013.35 1013.32 1013.43 1013.41 1013.37 1013.27 1012.99 1012.55 1012.31 1011.96 1011.63 1011.39 1011.14 1010.96 1010.74 1010.40 1010.10 1009.75 1009.39 1009.03 1008.74
1007.94 1008.22 1008.38 1008.28 1008.50 1008.73 1009.12 1009.93 1010.19 1010.76 1011.28 1011.86 1012.32 1012.75 1012.97 1013.28 1013.63 1013.59 1013.97 1014.11 1013.95 1013.96 1014.05 1014.03 1014.01 1014.06 1013.99 1013.72 1013.18 1012.69 1012.37 1011.87 1011.65 1011.37 1011.35 1011.02 1010.67 1010.46 1010.22 1009.89 1009.65 1009.34 1009.09
1008.35 1008.44 1008.66 1008.68 1008.74 1009.05 1009.49 1010.44 1010.90 1011.62 1012.14 1012.47 1013.20 1013.51 1013.66 1014.06 1014.17 1014.29 1014.50 1014.62 1014.51 1014.60 1014.67 1014.57 1014.52 1014.33 1014.26 1014.12 1013.42 1013.04 1012.30 1011.77 1011.71 1011.66 1011.48 1011.06 1010.82 1010.58 1010.32 1010.02 1009.75 1009.50 1009.13
1008.83 1008.81 1009.03 1009.08 1009.13 1009.26 1010.08 1010.95 1011.59 1012.47 1012.97 1013.44 1013.86 1014.15 1014.37 1014.53 1014.65 1014.84 1015.05 1015.07 1015.02 1015.16 1015.25 1015.12 1014.94 1014.87 1014.51 1014.20 1013.84 1013.24 1012.40 1011.65 1011.76 1011.69 1011.45 1011.23 1010.86 1010.59 1010.33 1009.94 1009.79 1009.54 1009.19
1009.32 1009.37 1009.43 1009.58 1009.66 1009.81 1010.50 1011.35 1012.04 1012.86 1013.57 1014.06 1014.64 1014.85 1014.99 1015.02 1015.11 1015.23 1015.50 1015.58 1015.58 1015.60 1015.59 1015.57 1015.53 1015.49 1015.14 1014.86 1014.96 1014.11 1013.44 1012.57 1011.89 1012.11 1011.75 1011.34 1011.09 1010.88 1010.51 1010.27 1010.05 1009.75 1009.35
1009.91 1009.92 1009.98 1010.16 1010.09 1010.49 1011.03 1011.79 1012.65 1013.30 1014.07 1014.75 1015.31 1015.52 1015.60 1015.44 1015.53 1015.63 1015.74 1015.85 1015.91 1015.91 1016.03 1015.95 1015.91 1015.96 1015.88 1015.32 1015.13 1015.13 1014.78 1014.36 1013.37 1012.04 1011.94 1011.55 1011.37 1011.21 1010.97 1010.78 1010.32 1009.78 1009.34
1010.30 1010.38 1010.59 1010.45 1010.69 1011.08 1011.51 1012.33 1013.04 1013.77 1014.68 1015.18 1015.56 1015.85 1015.99 1015.87 1015.91 1015.91 1015.95 1016.09 1016.24 1016.25 1016.26 1016.21 1016.10 1016.11 1015.98 1015.87 1015.33 1015.17 1015.54 1015.49 1014.80 1012.94 1012.30 1012.14 1011.65 1011.33 1011.02 1010.68 1010.21 1009.64 1009.26
1010.44 1010.88 1011.01 1011.08 1011.44 1011.68 1012.16 1012.76 1013.52 1014.35 1014.96 1015.35 1015.81 1016.16 1016.39 1016.42 1016.32 1016.27 1016.30 1016.36 1016.45 1016.43 1016.41 1016.35 1016.27 1016.18 1016.03 1016.00 1015.94 1015.55 1015.25 1014.99 1014.69 1014.39 1012.56 1012.17 1011.87 1011.37 1010.87 1010.42 1009.96 1009.53 1009.20
1010.80 1011.15 1011.54 1011.80 1012.30 1012.42 1012.79 1013.42 1013.97 1014.71 1015.32 1015.79 1016.30 1016.65 1016.76 1016.78 1016.81 1016.69 1016.52 1016.55 1016.52 1016.52 1016.47 1016.39 1016.30 1016.14 1016.04 1015.98 1015.90 1015.76 1015.63 1015.36 1014.74 1014.19 1013.01 1012.03 1011.53 1011.16 1010.75 1010.46 1009.92 1009.50 1009.00
Thickness
5764 5767 5765 5761 5760 5759 5756 5751 5747 5745 5742 5741 5740 5740 5739 5739 5739 5738 5738 5738 5739 5739 5739 5740 5743 5742 5741 5741 5740 5739 5737 5733 5731 5730 5729 5729 5729 5728 5727 5726 5724 5722 5720
5768 5765 5763 5760 5757 5755 5752 5749 5744 5741 5739 5738 5738 5737 5737 5737 5736 5735 5734 5735 5735 5735 5735 5735 5736 5738 5737 5737 5736 5736 5735 5732 5728 5726 5726 5727 5727 5727 5724 5724 5723 5720 5719
5766 5763 5761 5759 5757 5753 5749 5746 5742 5739 5737 5736 5736 5736 5735 5735 5733 5732 5731 5731 5732 5731 5731 5730 5731 5732 5732 5731 5730 5732 5730 5729 5726 5724 5724 5724 5724 5725 5723 5721 5720 5719 5718
5764 5761 5759 5757 5756 5752 5747 5744 5741 5737 5735 5735 5734 5733 5734 5733 5731 5729 5728 5727 5728 5727 5727 5728 5727 5727 5727 5726 5726 5726 5725 5724 5724 5722 5721 5722 5721 5723 5720 5719 5718 5718 5717
5761 5759 5757 5756 5754 5751 5747 5742 5740 5738 5734 5734 5732 5730 5730 5731 5730 5728 5726 5724 5723 5724 5723 5724 5724 5724 5724 5723 5723 5722 5722 5721 5720 5718 5717 5717 5718 5718 5717 5716 5715 5715 5714
5758 5758 5755 5754 5752 5748 5745 5741 5738 5736 5733 5732 5730 5729 5728 5728 5728 5725 5723 5721 5720 5720 5720 5720 5720 5720 5719 5718 5718 5717 5717 5716 5715 5713 5712 5713 5713 5714 5714 5713 5711 5710 5710
5755 5756 5753 5751 5749 5746 5742 5738 5736 5734 5733 5731 5729 5727 5727 5726 5726 5724 5722 5718 5716 5717 5715 5716 5715 5715 5714 5713 5712 5712 5711 5711 5710 5709 5709 5709 5709 5709 5710 5709 5708 5706 5705
5751 5751 5748 5747 5746 5743 5739 5736 5735 5733 5731 5728 5726 5725 5725 5723 5722 5719 5717 5715 5713 5711 5710 5710 5710 5709 5709 5708 5708 5707 5707 5707 5706 5705 5705 5705 5706 5706 5706 5705 5703 5701 5700
5750 5746 5744 5742 5741 5739 5737 5735 5734 5730 5728 5726 5724 5722 5721 5717 5716 5715 5714 5711 5710 5708 5707 5706 5705 5705 5705 5704 5704 5705 5704 5703 5702 5700 5699 5699 5699 5700 5700 5700 5698 5695 5694
5746 5744 5741 5739 5737 5735 5735 5733 5732 5728 5725 5722 5721 5720 5717 5714 5712 5711 5711 5707 5706 5705 5703 5702 5702 5701 5701 5700 5700 5700 5699 5698 5696 5695 5693 5693 5693 5694 5694 5693 5691 5689 5687
5742 5742 5738 5737 5736 5735 5734 5733 5729 5727 5723 5722 5720 5718 5716 5713 5711 5708 5707 5704 5702 5701 5700 5699 5698 5698 5697 5697 5697 5696 5695 5693 5692 5690 5689 5688 5687 5688 5688 5688 5685 5683 5681
5735 5739 5740 5736 5736 5736 5733 5731 5727 5725 5722 5721 5720 5718 5715 5712 5709 5707 5705 5702 5700 5699 5699 5697 5696 5695 5694 5693 5693 5692 5691 5690 5688 5685 5684 5685 5683 5683 5682 5682 5680 5678 5676
5738 5738 5741 5740 5737 5736 5733 5728 5727 5724 5721 5720 5718 5714 5713 5708 5707 5705 5702 5700 5698 5697 5696 5695 5693 5692 5690 5689 5688 5687 5686 5685 5683 5682 5681 5680 5680 5680 5678 5678 5677 5675 5674
5734 5739 5740 5740 5738 5736 5733 5730 5729 5723 5720 5718 5717 5714 5710 5706 5705 5703 5699 5697 5695 5693 5691 5690 5689 5687 5685 5684 5682 5681 5680 5679 5678 5677 5678 5678 5678 5677 5675 5674 5673 5672 5672
5734 5737 5738 5739 5736 5735 5731 5730 5727 5724 5720 5717 5714 5711 5707 5702 5698 5696 5694 5693 5692 5692 5690 5687 5684 5682 5681 5679 5677 5676 5675 5674 5671 5670 5669 5669 5669 5669 5666 5668 5667 5668 5668
5733 5735 5738 5736 5736 5734 5729 5727 5724 5722 5718 5715 5711 5706 5702 5697 5693 5691 5689 5687 5686 5685 5683 5681 5678 5675 5672 5669 5667 5666 5665 5666 5664 5664 5664 5664 5664 5663 5662 5659 5661 5663 5663
5722 5729 5730 5731 5732 5728 5728 5724 5721 5718 5713 5710 5705 5701 5696 5691 5687 5684 5679 5677 5676 5675 5674 5671 5667 5664 5661 5660 5658 5658 5656 5655 5655 5655 5655 5655 5653 5651 5650 5650 5651 5653 5652
5720 5721 5723 5727 5727 5723 5724 5720 5716 5712 5706 5701 5695 5690 5685 5681 5678 5674 5670 5667 5665 5664 5662 5658 5654 5651 5649 5647 5647 5647 5646 5646 5646 5645 5644 5641 5641 5640 5640 5639 5639 5639 5638
5714 5715 5716 5720 5719 5719 5717 5711 5708 5701 5696 5689 5683 5678 5674 5670 5665 5663 5659 5656 5655 5652 5648 5645 5641 5638 5637 5636 5638 5639 5637 5638 5636 5635 5632 5631 5630 5628 5627 5626 5624 5623 5621
5706 5708 5710 5712 5713 5712 5709 5699 5695 5688 5683 5679 5670 5666 5663 5657 5655 5652 5648 5644 5643 5639 5634 5632 5629 5627 5625 5624 5628 5627 5629 5629 5627 5623 5620 5620 5617 5615 5613 5612 5610 5607 5605
5698 5701 5703 5704 5705 5706 5697 5689 5683 5674 5670 5664 5659 5654 5650 5647 5644 5640 5636 5632 5629 5625 5620 5619 5617 5614 5612 5611 5611 5615 5617 5619 5615 5611 5610 5606 5604 5600 5597 5596 5592 5588 5586
5689 5691 5693 5694 5695 5695 5688 5680 5674 5666 5658 5652 5646 5643 5640 5637 5633 5629 5625 5620 5616 5611 5608 5605 5602 5599 5597 5594 5591 5593 5597 5603 5603 5596 5592 5589 5585 5581 5578 5574 5569 5566 5564
5679 5682 5683 5683 5687 5684 5679 5672 5663 5656 5648 5641 5634 5630 5627 5626 5622 5618 5613 5608 5604 5600 5595 5592 5588 5584 5581 5580 5575 5571 5565 5566 5576 5585 5581 5576 5570 5565 5558 5554 5550 5547 5544
5671 5673 5673 5676 5675 5673 5669 5661 5653 5645 5637 5631 5625 5620 5616 5614 5610 5606 5602 5597 5592 5588 5583 5580 5577 5572 5569 5565 5563 5557 5546 5537 5535 5550 5559 5554 5550 5546 5540 5535 5532 5528 5524
5664 5661 5662 5664 5662 5661 5657 5651 5643 5633 5628 5622 5615 5609 5605 5601 5597 5594 5590 5586 5582 5578 5573 5569 5565 5560 5555 5550 5544 5541 5538 5531 5523 5515 5524 5524 5524 5522 5520 5517 5513 5507 5501
5655 5653 5652 5652 5648 5647 5644 5637 5632 5624 5617 5610 5604 5598 5594 5590 5586 5583 5580 5576 5572 5568 5563 5558 5553 5548 5543 5536 5529 5522 5515 5509 5509 5504 5507 5509 5505 5502 5495 5489 5484 5477 5472